Regional Weather Roundup
Issued by NWS Wilmington, NC

Home | Current Version | Previous Version | Text Only | Print | Product List | Glossary On
Versions: 1 2 3 4 5 6 7 8 9 10 11 12 13 14 15 16 17 18 19 20 21 22 23 24 25 26 27
000
ASUS42 KILM 211913
RWRILM
RWRILM
REGIONAL HOURLY WEATHER ROUNDUP
NATIONAL WEATHER SERVICE WILMINGTON NC
300 PM EDT SAT APR 21 2018

NOTE: "FAIR" INDICATES FEW OR NO CLOUDS BELOW 12,000 FEET WITH NO
SIGNIFICANT WEATHER AND/OR OBSTRUCTIONS TO VISIBILITY.

...............WFO WILMINGTON COUNTY WARNING AREA...............

......COASTAL NC AND SC COUNTIES......

CITY           SKY/WX    TMP DP  RH WIND       PRES   REMARKS
WILMINGTON     FAIR      65  29  25 E7        30.38F
N MYRTLE BEACH FAIR      65  46  50 E13G21    30.36F
MYRTLE BEACH   FAIR      65  47  52 E16       30.38F

......INLAND NC AND SC COUNTIES.......

CITY           SKY/WX    TMP DP  RH WIND       PRES   REMARKS
LUMBERTON      FAIR      70  37  29 E9        30.36F
ELIZABETHTOWN  FAIR      69  33  26 MISG      30.36F
WHITEVILLE     FAIR      69  36  30 E6        30.35F
FLORENCE       FAIR      70  28  21 SE8       30.35F
DARLINGTON     FAIR      69  35  28 E9        30.36F
KINGSTREE      FAIR      70  39  32 NE3       30.33F
HARTSVILLE     FAIR      70  32  24 SE7       30.35F
BENNETTSVILLE  FAIR      72  36  26 CALM      30.35F
CONWAY         FAIR      68  43  40 SE8       30.35F
GEORGETOWN     FAIR      66  43  42 E17       30.37F
MARION         FAIR      68  34  28 E8        30.36S

....................REST OF NORTH CAROLINA......................

.........EASTERN NC.........

CITY           SKY/WX    TMP DP  RH WIND       PRES   REMARKS
CAPE HATTERAS  FAIR      60  38  43 NE9       30.41F
JACKSONVILLE   FAIR      68  36  30 VRB7      30.36F
MOREHEAD CITY  FAIR      63  40  42 E13       30.39F
KENANSVILLE    FAIR      66  32  28 E3        30.37F
NEW BERN       FAIR      65  40  39 E10       30.39F
ELIZABETH CITY FAIR      58  43  57 E10       30.40F

.........CENTRAL NC.........

CITY           SKY/WX    TMP DP  RH WIND       PRES   REMARKS
RALEIGH DURHAM FAIR      67  38  34 CALM      30.37F
ROCKY MOUNT    FAIR      66  33  29 VRB3      30.38F
ROANOKE RAPIDS NOT AVBL
FAYETTEVILLE   FAIR      69  34  27 E6        30.36F
HOFFMAN        FAIR      68  35  28 E10       30.35F

.........WESTERN NC.........

CITY           SKY/WX    TMP DP  RH WIND       PRES   REMARKS
CHARLOTTE      FAIR      68  33  27 S10       30.35F
GREENSBORO     FAIR      65  32  29 VRB3      30.34F
HICKORY        NOT AVBL
BOONE          NOT AVBL
ASHEVILLE      NOT AVBL

.....................REST OF SOUTH CAROLINA.....................

.........EASTERN SC.........

CITY           SKY/WX    TMP DP  RH WIND       PRES   REMARKS
CHARLESTON     FAIR      72  49  44 E17       30.34S
BEAUFORT MCAS  CLOUDY    69  53  56 E12G20    30.32F
HILTON HEAD    MOSUNNY   66  54  63 E13G22    30.33F

.........CENTRAL SC.........

CITY           SKY/WX    TMP DP  RH WIND       PRES   REMARKS
COLUMBIA       FAIR      72  35  25 VRB7      30.32F
ORANGEBURG     PTSUNNY   70  43  37 E8        30.32F
SUMTER SHAW    FAIR      72  31  22 CALM      30.31F

.........WESTERN SC.........

CITY           SKY/WX    TMP DP  RH WIND       PRES   REMARKS
GREENVILLE     NOT AVBL
ROCK HILL      FAIR      69  36  29 VRB3      30.34F
ANDERSON       FAIR      69  33  26 SE7       30.33F
CLEMSON        NOT AVBL
GREENWOOD      FAIR      68  35  29 NE6       30.34F


...................COASTAL AND OFFSHORE REPORTS..................

................LOCAL PIERS AND NC RESERVE................


STATION/POSITION TIME  SKY/WX   TEMP    WIND        PRES    VSBY
                                AIR SEA DIR/SP/G
                 (UTC)          (F)     (DEG/KT/KT) (MB)    (MI)
JOHNY MRCER PIER 1848            59 63   80/ 14/ 15 1029.1F
NC RESRV MASNBRO 1745            62      80/ 10     1029.0
OCEAN CREST PIER NOT AVBL
SPRINGMAID  PIER 1848                               1031.5F


................COASTAL AND OFFSHORE BUOYS................


STATION/POSITION TIME  SKY/WX   TEMP    WIND        PRES    VSBY
                                AIR SEA DIR/SP/G
                 (UTC)          (F)     (DEG/KT/KT) (MB)    (MI)
DIMNDSHOAL 41025 1900            55 71   20/ 14/ 17 1029.8
CAPE LOOKOUT     1900                    70/ 14/ 15 1029.6F
ONSLOW BAY 41036 NOT AVBL
ONSLOW BAY 41064 1808            59 66   70/ 10/ 14 1029.8F
ONSLOW BAY 41159 1900               66                N/A
WVE H/P(F/S)=  4/ 8

MASNBO INL 41110 1900               60                N/A
WVE H/P(F/S)=  3/ 8

WILM HARBR 41108 1900               61                N/A
WVE H/P(F/S)=  3/ 5

27SE WRITB 41037 1808            60 66   70/ 16/ 23 1029.1F
FRYING PAN 41013 1900            62 67   60/ 17/ 21 1028.1
SUNST NRSH 41024 1808            60 62  110/ 17/ 21 1028.3F
CAPRS NRSH 41029 1808            62 63   60/ 19/ 25 1027.7F
EDISTO     41004 1900            66 67   80/ 14/ 17 1026.7


..........OFFSHORE BUOYS BEYOND 100 NM OFFSHORE...........
.....IN A TRIANGLE---HAT TO BERMUDA TO BAHAMAS TO HAT.....


STATION/POSITION TIME  SKY/WX   TEMP    WIND        PRES    VSBY
                                AIR SEA DIR/SP/G
                 (UTC)          (F)     (DEG/KT/KT) (MB)    (MI)
150E HAT   41001 NOT AVBL
W BERMUDA  41048 1900               70   20/ 14/ 17 1026.1
ATLANTIC S 41049 1900               76  240/  6/  8 1022.1
E BAHAMAS  41046 1900            78 79  110/ 10/ 12 1019.4
NE BAHAMAS 41047 1900                    60/ 19/ 23 1022.0
120E CANVRL41010 1850            72 76   70/ 21/ 25 1023.1F
WVE H/P(F/S)=  9/ 8 SWL H/P/D(F/S/D)=  2/100/15


END




USA.gov is the U.S. government's official web portal to all federal, state and local government web resources and services.